Погода Айон Остров

Погода Айон Остров : погода сейчас, прогноз погоды и архив. Всё, что Вы хотите узнать о погоде Айон Остров!

Поиск расширенной информации на нашем сайте:

Другие новости

Новости СМИ2

Главная страница сайта

Новости сайта

03.07.2017

Напоминаем, что на нашем специализированном сайте Метеоцентр.Азия вы можете получить высокодетализированные автоматические прогнозы погоды по пунктам России, СНГ и мира в авиационном формате (включающие направление и скорость ветра, видимость, явления погоды, количество и форму облачности, нижнюю и верхнюю границу облачности).


Погода Айон Остров - сегодня

Время (UTC), дата Ветер
(°,м/с) 
Видим.   Явления Облачность Т
(°С)
Тd
(°С)
f(%) Тe
(°С)
Pmin
(гПа)
dP
(гПа)
Po
(мм)
O2
(г/м3)
Тmin Tmax R s Состояние
почвы
03 16.02.18 040 (СВ) 3-4{04}  20000 м    ясно 
-22.8 -24.6 85 -27  1015.4  1.4  760  336           
06 16.02.18 050 (СВ) 3-4{05}  20000 м    ясно 
-23.2 -25.2 84 -28  1016.1  0.7  761  337           
09 16.02.18 040 (СВ) 6-7{08}  20000 м  позёмок  10/10 240 м 
[St]
-18.6 -20.2 87 -26  1015.8  -0.3  760  330    -18.6       
21 16.02.18 050 (СВ) 4-5{07}  10 км    10/10 210 м 
[St]
-12 -13.3 90 -16  1008.8  -1.2  755  320  -18.6    0.3  15  неравномерный
сухой снег
100% 
03 17.02.18 170 (Ю) 2-4{05}  20000 м    10/0 средняя, верхняя 
[Ac trans|Ci fib]
-18.2 -19.4 90 -21  1007.7  -0.5  754  327           
06 17.02.18 220 (ЮЗ) 4-5{05}  20000 м    10/0 средняя, верхняя 
[Ac trans|Ci fib]
-15.6 -16.9 90 -20  1007.6  754  324           
15 17.02.18 150 (ЮВ) 2-3{03}  20000 м    10/0 средняя 
[Ac und]
-17.3 -18.7 89 -20  1009.9  756  327           
18 17.02.18 160 (Ю) 4-4{05}  20000 м    10/0 средняя 
[Ac und]
-17.4 -18.8 89 -22  1011  1.1  757  327           
21 17.02.18 150 (ЮВ) 4-5{06}  20000 м    3/0 средняя 
[Ac trans]
-21.4 -23.3 85 -27  1012.9  1.8  758  333  -21.4      15  неравномерный
сухой снег
100% 
03 18.02.18 тихо () -0{02}  20000 м    ясно 
-20.7 -22.5 85 -21  1014.4  0.8  759  333           
06 18.02.18 270 (З) 2-2{03}  20000 м    10/0 средняя 
[As op]
-21.9 -23.7 85 -25  1013.3  -1.1  759  334           
21 18.02.18 270 (З) 6-9{09}  4000 м  слаб. снег  10/0 средняя 
[As op]
-13 -14.3 90 -19  997.9  -2.9  747  317  -17.2    16  неравномерный
сухой снег
100% 
09 19.02.18 260 (З) 11-15{17}  2000 м  метель{снег}  10/0 средняя 
[As op]
-17.9 -19.3 89 -27  999.3  2.5  748  324    -12.3     
21 19.02.18 300 (СЗ) 6-7{11}  20000 м  позёмок  10/0 средняя 
[Ac und]
-20.2 -22.1 85 -27  1001.3  -1.6  750  328  -20.2      10  неравномерный
сухой снег
100% 
00 20.02.18 290 (З) 3-4{09}  20000 м    10/0 средняя 
[Ac und]
-19.8 -21.5 86 -24  1000.9  -0.4  749  327  -20.5         
09 20.02.18 290 (З) 10-12{13}  4000 м  слаб. снег  10/0 средняя 
[As op]
-19.9 -21.6 86 -30  997.6  -0.4  747  326    -19.6  0.8     
21 20.02.18 280 (З) 10-12{15}  10 км  позёмок  10/0 средняя 
[Ac und]
-20.9 -22.9 84 -31  1005.9  3.1  753  330  -21.6    0.6  неравномерный
сухой снег
100% 
09 21.02.18 270 (З) 9-11{12}  20000 м  позёмок  10/0 средняя 
[As op]
-19.2 -21.6 81 -28  1014.3  1.6  759  331    -19       
18 21.02.18 250 (З) 4-5{09}  20000 м    ясно 
-22.6 -24.6 84 -28  1014.6  -0.5  760  335           
21 21.02.18 270 (З) 10-12{12}  20000 м  позёмок  9/0 средняя 
[Ac trans]
-19.4 -21.9 81 -29  1014.1  -0.5  759  331  -23.5      неравномерный
сухой снег
100% 
09 22.02.18 270 (З) 11-14{15}  1000 м  метель  10/0 средняя 
[As trans]
-18.1 -19.8 87 -28  1014.8  0.6  760  329    -17.9       
21 22.02.18 250 (З) 7-9{17}  20000 м  позёмок  9/0 средняя 
[Ac trans]
-19.5 -21.4 85 -27  1021.7  2.5  765  334  -19.5      неравномерный
сухой снег
100% 
00 23.02.18 270 (З) 8-10{11}  20000 м  позёмок  8/0 средняя, верхняя 
[Ac trans|Ci fib]
-19.4 -21.7 82 -28  1024  2.3  767  334  -20         
09 23.02.18 230 (ЮЗ) 6-8{09}  20000 м  позёмок  3/0 средняя 
[Ac trans]
-22 -24.8 78 -30  1028.7  1.4  770  339    -19.3       
21 23.02.18 250 (З) 4-6{08}  20000 м    10/0 средняя 
[Ac und]
-21.8 -23.6 85 -28  1029.8  771  339  -23      неравномерный
сухой снег
100% 
Время (UTC), дата Ветер
(°,м/с) 
Видим.   Явления Облачность Т
(°С)
Тd
(°С)
f(%) Тe
(°С)
Pmin
(гПа)
dP
(гПа)
Po
(мм)
O2
(г/м3)
Тmin Tmax R s Состояние
почвы

Для получения пояснительной информации подведите курсор к названию столбца.

ПОГОДА Айон Остров - архив

Всё, что Вы хотите узнать о погоде Айон Остров - удобно и подробно!

Выберите нужную дату (начиная с 1 января 2015* года) и нажмите кнопку "Найти".
Будут отображены архивные сводки погоды по пункту Айон Остров, начиная с указанной даты.


Отображать данные в формате CSV (для использования в таблицах Excel)


Внимание! Наш архив погоды предназначен исключительно для личного некоммерческого использования в познавательных целях. Если Вам необходимы официальные справки о состоянии погоды (для производственных, юридических, коммерческих и т.п. целей), обращайтесь в органы Росгидромета.

*Примечание: данная дата относится к архиву по метеостанциям СССР (Россия, СНГ, Балтия).
Архив по метеостанциям Зарубежной Европы и Азии (кроме Китая) хранится 10 дней, по другим регионам земного шара (Китай, Африка, Америка, Австралия, Океания) - 1 день.

Айон Остров - район местоположения метеостанции


Название, широта, долгота, высота метеостанции:
Айон Остров 69.8°ш. 168.7°д. 16 м над ур. моря [Российская Федерация]

Дополнительная информация

В oтличие oт бoльшинства пoгoдных сайтoв мы публикуем пoдрoбную метеoинфoрмацию в детальнoм прoфессиoнальнoм фoрмате.

Характеристики температуры и влажнoсти вoздуха измеряются на высoте 2 м в тени вдали oт зданий и деревьев.
Скoрoсть ветра измеряется на высoте 10 м (на урoвне рoста челoвека скoрoсть ветра ниже в 1.5-2 раза). Если метеoстанция нахoдится в гoрoде или в лесу, тo скoрoсть ветра занижена на 2-4 м/с пo сравнению с oткрытым местoм. Скoрoсть ветра над акватoриями крупных рек и oзёр, а также на вершинах хoлмoв на 2-5 м/с выше, чем в oбычных услoвиях.
Атмoсфернoе давление в разных тoчках местнoсти мoжет значительнo oтличаться oт давления на метеoстанции, в зависимoсти oт услoвий рельефа (при пoдъёме на 10 м давление пoнижается примернo на 1 мм рт.ст.).